COSMOS 2251 DEB, 34672

Orbit data source: Space-Track

COSMOS 2251 DEB, 34672 is space debris in LEO originally from a launch on Wed, 16 Jun 1993 UTC launched from the Plesetsk Missile And Space Complex (PKMTR). The debris from Iridium 33, an American commercial communications satellite, has been tracked extensively since its accidental collision with the defunct Russian satellite Cosmos 2251 in 2009. This event, occurring at high speed in low Earth orbit (LEO), generated thousands of pieces of space debris, significantly increasing the risk of further collisions. The Iridium 33 debris cloud has impacted space traffic management and orbital debris mitigation strategies, making it a subject of ongoing study in space situational awareness.

Loading next visibility...
Identifier
34672, 1993-036XS
Orbit
LEO
Country
Flag of CISCIS
Related business
Manufacturer
Unknown
Mission
Spacecraft
Bus & Motor
Unknown
Mass
Unknown
Launch date (UTC)
1993-06-16 (33 years ago)
Launch vehicle
Unknown
Launch site
Plesetsk Missile And Space Complex (PKMTR)
Object type
Payload
Rocket body
Debris
Shape & HBR
Unknown shape, 0.1 m
Radar Cross Section
Small (<0.1 m²)

Expand to show TLE details & history
Last TLE update: 6 days ago

TLE from 6 days ago
0 COSMOS 2251 DEB
1 34672U 93036XS  26167.69820249  .00000399  00000-0  14410-3 0  9999
2 34672  74.0338 323.8515 0024578 353.6216  22.1697 14.36665346678482
Epoch: 2026-06-16T16:45Z
TLE epoch observation values (Epoch: 2026-06-16T16:45:24.695Z)
Latitude
15.25209°
Longitude
171.98251°
Altitude
755.186 km
Speed
7.487 km/s
True Right ascension
21h 53m 12s
True Declination
15° 09' 54"
Sunlit
Object was in daylight at epoch
Visualization orbit readout
Latitude
Unknown
Longitude
Unknown
Altitude
Unknown
Speed
Unknown
Apparent Right ascension
Unknown
Apparent Declination
Unknown
Sunlit
N/A
Visualization observer readout
Local Sidereal Time
21:43:28
Azimuth
Unknown
Elevation
Unknown
Doppler factor
Unknown
Orbital elements
Apogee altitude
784.723 km
Perigee altitude
749.599 km
Semi-major axis
7,145.298 km
Eccentricity
0.00246
Inclination
74.0338°
RAAN
323.8515°
Arg. of periapsis
353.6216°
True anomaly
22.27628°
Mean anomaly
22.1697°
Eccentric anomaly
22.22296°
Mean motion
3.59346 °/min
Orbital period
100.18 mins
BSTAR
0.0001441
Loading maneuver chart data...
Computing Atmospheric mass density...

Documentation

Showing up to 5 results
|